This is the latest recevied weather packets stored in our database for station/object IU7URP-17. If no packets are shown the sender has not sent any weather packets the latest 10 day(s).
| Time | Temp. | Humidity | Pressure | Rain* | Wind** | Luminosity | Snow |
|---|---|---|---|---|---|---|---|
| 1787897784 | 30.56° C | 53% | 1018.3 hPa | - | - | - | - |
| 1787896580 | 28.89° C | 60% | 1018.8 hPa | - | - | - | - |
| 1787895376 | 26.67° C | 70% | 1019 hPa | - | - | - | - |
| 1787894171 | 25.56° C | 76% | 1018.9 hPa | - | - | - | - |
| 1787892967 | 23.89° C | 79% | 1018.6 hPa | - | - | - | - |
| 1787891763 | 22.78° C | 83% | 1018.7 hPa | - | - | - | - |
| 1787890559 | 23.33° C | 81% | 1018.7 hPa | - | - | - | - |
| 1787889355 | 22.78° C | 81% | 1018.5 hPa | - | - | - | - |
| 1787888151 | 23.33° C | 78% | 1018.5 hPa | - | - | - | - |
| 1787886947 | 23.33° C | 81% | 1018.3 hPa | - | - | - | - |
| 1787885743 | 23.33° C | 80% | 1018.5 hPa | - | - | - | - |
| 1787884539 | 22.78° C | 79% | 1018.8 hPa | - | - | - | - |
| 1787883335 | 23.33° C | 78% | 1018.7 hPa | - | - | - | - |
| 1787882131 | 23.33° C | 82% | 1018.6 hPa | - | - | - | - |
| 1787880927 | 23.33° C | 79% | 1018.6 hPa | - | - | - | - |
| 1787879723 | 23.33° C | 75% | 1018.6 hPa | - | - | - | - |
| 1787878519 | 23.33° C | 69% | 1018.8 hPa | - | - | - | - |
| 1787877315 | 23.33° C | 67% | 1019 hPa | - | - | - | - |
| 1787876111 | 22.78° C | 68% | 1019.2 hPa | - | - | - | - |
| 1787874906 | 24.44° C | 61% | 1019.2 hPa | - | - | - | - |
| 1787873703 | 25° C | 57% | 1019.2 hPa | - | - | - | - |
| 1787872498 | 25° C | 57% | 1019.2 hPa | - | - | - | - |
| 1787871294 | 25° C | 58% | 1019.2 hPa | - | - | - | - |
| 1787870090 | 25° C | 59% | 1019.4 hPa | - | - | - | - |
| 1787868886 | 25° C | 59% | 1019.5 hPa | - | - | - | - |
* Rain since midnight (hover to see other rain measurements)
** Current wind speed in m/s (hover to see current wind gust speed)